Location: Colle Pacifico
(43.5333°N, 13.3167°E)
Time: 04:18:02
(UTC+00:00)

Cosmos 1953 Rocket - Pass Details

Date: 07 June 2020
Orbit: 603 x 635 km, 82.5° (Epoch: 07 July)

Event Time Altitude Azimuth Distance (km) Brightness Sun altitude
Exits shadow 00:33:32 51° 233° (SW) 786 3.7 -20.7°
Maximum altitude 00:34:20 61° 280° (W) 707 3.7 -20.6°
Drops below altitude 10° 00:38:43 10° 2° (N) 1,991 7.2 -20.3°
Sets 00:40:58 0° 5° (N) 2,896 8.3 -20.2°
